Hourly Data Report for September 10, 2017

All times are specified in Local Standard Time (LST). Add 1 hour to adjust for Daylight Saving Time where and when it is observed.

ALERT CLIMATE
NUNAVUT

82°30'00.000" N
62°20'00.000" W
65.40 m
2400305
71355
ZLT

Download Data

Hourly Data (September 2017)
Hourly Data Report for September 10, 2017
Temp Definition
°C
Dew Point Temp Definition
°C
Rel Hum Definition
%
Wind Dir Definition
10's deg

Wind Spd Definition
km/h
Visibility Definition
km
Stn Press Definition
kPa
Hmdx Definition


Wind Chill Definition


Weather Definition


TIME
00:00 -12.4 -14.1 87 27 4   99.03   -15 LegendNANA
01:00 -12.5 -14.4 85 27 3   98.98   -14 LegendNANA
02:00 -12.5 -14.2 87 29 4   98.98   -15 LegendNANA
03:00 -13.0 -15.1 85 29 5   98.98   -16 LegendNANA
04:00 -13.6 -15.6 85 29 8   98.99   -19 LegendNANA
05:00 -13.1 -14.8 87 28 8   98.98   -18 LegendNANA
06:00 -12.4 -14.2 86   0   99.01     LegendNANA
07:00 -13.4 -15.5 84 30 6   99.02   -17 LegendNANA
08:00 -11.4 -13.8 82 31 6   99.02   -15 LegendNANA
09:00 -11.0 -13.4 82 31 4   99.06   -13 LegendNANA
10:00 -11.2 -14.0 80 29 11   99.07   -17 LegendNANA
11:00 -10.5 -12.5 85 29 14   99.06   -17 LegendNANA
12:00 -9.1 -12.7 75 31 7   99.06   -13 LegendNANA
13:00 -8.3 -11.9 75 27 5   99.07   -11 LegendNANA
14:00 -8.7 -13.0 71 28 5   99.05   -11 LegendNANA
15:00 -10.9 -13.2 83 35 10   99.07   -16 LegendNANA
16:00 -10.5 -14.1 75 6 2   99.11   -12 LegendNANA
17:00 -11.8 -14.9 78 32 8   99.11   -17 LegendNANA
18:00 -11.6 -14.3 80 31 2   99.13   -13 LegendNANA
19:00 -13.2 -15.7 81 28 11   99.14   -19 LegendNANA
20:00 -11.9 -13.6 87 30 8   99.15   -17 LegendNANA
21:00 -12.1 -13.4 90 5 4   99.17   -15 LegendNANA
22:00 -12.5 -13.7 91 9 2   99.18   -14 LegendNANA
23:00 -12.9 -14.3 89 0 1   99.22   -14 LegendNANA

Notes on Data Quality.

Legend

  • E = Estimated
  • M = Missing
  • NA = Not Available
  • ‡ = Partner data that is not subject to review by the National Climate Archives
Date modified: